Location: Skalnate Pleso
(49.1889°N, 20.2450°E)
Time: 01:08:58
(UTC+01:00)

COSMOS 2428 - Pass Details

Date: 22 February 2020
Orbit: 846 x 856 km, 70.9° (Epoch: 28 March)

Event Time Altitude Azimuth Distance (km) Brightness Sun altitude
Exits shadow 04:28:46 11° 327° (NNW) 2,411 4.8 -21.5°
Maximum altitude 04:29:38 12° 336° (NNW) 2,389 4.9 -21.4°
Drops below altitude 10° 04:31:32 10° 356° (N) 2,501 5.2 -21.1°
Sets 04:36:02 0° 28° (NNE) 3,440 6.4 -20.3°
